Theta_e
328 334 335 325 307 305 300 303 310 310 311 313 317 317 315 317 315 306 326 336 338 337 339 341 346 347 347 347 348 347 346 346 343 341 339 338 337 337 337 336 335 335 335 334 334 334 333 334 333
326 327 327 316 303 297 298 305 307 311 313 317 320 318 316 312 321 320 325 336 337 336 338 340 343 347 346 347 346 346 346 346 344 343 341 338 337 337 336 336 336 335 335 335 335 334 334 334 333
326 327 314 308 302 297 299 305 311 315 315 316 317 322 316 315 321 321 331 336 336 335 337 340 343 346 346 346 346 345 345 344 343 341 338 337 335 337 337 336 336 336 336 336 336 335 334 333 332
319 315 313 302 301 306 305 310 314 314 314 319 319 314 317 322 322 323 333 335 333 334 337 340 344 345 345 345 344 343 341 340 338 336 335 335 333 332 335 335 336 336 334 336 334 332 332 332 333
318 310 304 300 303 307 310 314 314 313 311 315 319 311 316 323 325 322 331 330 332 334 336 338 343 344 344 343 341 340 338 337 336 336 334 333 332 332 332 332 331 331 331 331 331 332 332 333 334
311 308 299 298 301 308 313 315 314 314 313 317 315 315 317 322 320 320 324 327 330 333 336 338 336 339 340 340 340 339 337 335 334 334 333 333 333 334 334 334 333 333 333 333 334 334 334 335 335
309 305 299 301 301 305 313 318 311 312 314 315 321 315 319 320 319 320 324 328 328 332 333 334 337 335 333 335 336 337 337 336 336 335 334 334 335 334 333 332 331 331 332 333 334 335 335 336 336
312 308 301 301 301 301 314 315 316 314 313 320 323 313 315 322 319 321 325 331 327 327 331 330 333 333 332 331 330 331 333 335 335 333 330 329 330 330 330 329 332 332 333 334 335 335 336 336 336
317 303 299 301 302 304 313 312 314 316 316 317 320 320 322 323 320 320 323 327 326 326 327 332 332 330 331 331 329 329 329 330 329 328 326 325 327 328 328 327 331 332 332 332 333 335 336 333 331
309 302 302 307 307 309 312 313 312 310 313 314 318 322 324 319 317 321 321 322 323 323 325 329 327 325 329 333 330 331 332 330 329 329 328 327 328 328 328 324 326 328 328 331 333 335 333 328 327
310 303 307 308 311 311 311 310 311 310 308 315 316 318 320 317 316 321 323 323 323 326 327 325 324 324 328 330 329 331 332 331 330 329 331 330 327 327 326 326 324 324 323 325 332 329 331 330 329
303 309 310 310 313 312 308 310 308 308 309 318 322 321 320 317 317 320 321 323 326 329 330 330 331 325 329 329 329 328 329 328 327 328 331 328 326 326 327 327 328 328 332 331 331 328 329 328 328
306 308 311 313 312 312 312 308 308 308 312 324 323 321 319 318 317 320 322 322 326 327 329 329 329 326 326 330 331 329 329 328 329 329 330 328 328 327 329 329 332 332 334 332 328 327 326 326 327
310 309 309 311 311 310 309 308 306 309 321 322 322 319 319 319 317 318 321 322 324 326 328 329 329 326 328 326 323 324 327 327 328 328 329 331 330 331 332 332 332 331 331 329 324 320 320 317 317
307 304 307 309 310 308 310 305 305 312 321 318 319 319 319 319 318 317 320 322 325 326 327 328 326 326 325 323 322 323 328 330 331 332 334 334 333 332 332 329 324 324 321 317 317 315 315 313 313
301 301 298 306 309 310 307 298 307 312 317 316 317 317 318 319 319 319 320 321 323 323 325 326 327 322 322 322 324 329 331 333 332 330 326 324 324 326 323 320 317 317 314 313 312 312 311 311 309
298 292 297 300 309 307 305 299 306 312 316 314 315 316 319 320 322 322 321 321 320 321 322 322 322 321 322 325 328 330 327 324 323 321 320 319 319 320 316 314 313 312 310 308 308 308 308 307 305
288 291 298 297 303 306 303 301 308 312 314 314 315 315 318 320 322 325 323 321 320 320 321 321 322 324 327 329 329 324 321 319 318 316 313 312 312 313 310 308 309 308 306 304 304 304 305 303 301
293 294 295 300 305 303 302 302 305 309 310 313 314 314 317 319 323 326 325 323 321 321 321 322 323 326 329 330 326 323 317 313 310 308 307 306 306 307 306 304 304 304 301 300 301 301 301 301 300
294 292 293 300 304 303 302 301 305 308 309 313 314 314 315 318 321 323 324 323 322 320 322 324 326 328 330 330 329 322 315 308 305 303 303 303 303 303 303 301 300 300 299 298 297 298 298 298 298
290 292 294 295 302 303 301 298 301 306 310 312 316 317 317 317 318 321 323 324 323 322 323 325 327 328 327 324 319 312 309 306 301 300 299 299 300 300 299 298 298 297 297 295 295 295 295 294 295
286 296 294 296 296 290 300 288 298 302 305 310 313 316 317 318 320 322 322 316 314 312 315 317 319 323 322 320 316 312 308 302 300 298 297 296 297 297 297 296 296 295 295 294 294 294 293 293 290
293 297 294 293 295 293 295 292 296 301 300 306 309 314 316 319 319 319 312 309 309 309 308 309 309 309 317 317 314 307 302 301 299 297 295 294 294 295 295 294 293 294 293 293 292 292 292 291 289
299 296 295 293 288 284 291 291 291 297 300 304 310 313 316 318 316 309 308 307 305 305 304 302 300 299 305 306 305 303 300 298 297 296 295 294 294 293 294 293 291 292 292 292 291 291 290 288 287
298 291 283 282 282 283 292 289 293 300 301 302 308 312 316 316 308 306 305 303 302 301 298 299 298 295 297 298 299 299 299 298 296 295 294 293 292 292 291 291 291 291 291 291 290 289 288 287 285
294 291 285 280 281 284 291 285 293 301 301 304 304 313 311 306 306 305 303 301 298 297 296 296 295 294 294 295 295 294 295 294 293 293 292 291 291 291 292 291 290 290 290 289 288 287 287 285 284
294 290 293 286 284 283 287 292 298 299 301 305 306 306 304 304 303 301 299 297 296 295 294 295 295 293 293 293 293 293 293 292 291 290 291 290 291 290 290 290 289 288 288 287 286 285 284 284 284
295 296 287 286 279 279 286 286 290 294 297 302 301 301 302 300 298 298 297 296 295 295 293 293 293 292 292 291 291 291 291 291 291 291 290 289 289 289 288 287 286 286 286 285 284 283 284 284 283
292 290 292 291 287 282 281 285 289 293 297 299 300 299 298 297 296 296 296 296 293 294 293 292 292 291 291 291 291 292 291 291 291 289 288 286 286 286 285 286 286 286 285 284 284 283 283 282 282
291 291 292 284 282 284 284 286 292 292 298 299 297 296 294 294 294 293 293 294 293 293 293 292 292 292 293 293 292 290 289 288 286 285 285 285 284 284 284 285 285 285 285 284 283 282 282 281 280
Wind_Speed
5 7 1 3 3 3 4 5 4 1 3 3 3 10 10 4 3 4 6 16 18 13 10 10 11 12 11 11 11 11 14 17 16 15 14 14 13 12 13 12 12 12 12 12 11 11 11 11 11
4 5 2 1 3 1 5 6 5 6 6 8 11 8 7 4 3 10 8 17 17 14 10 9 10 13 13 12 11 11 15 16 15 14 14 13 12 11 11 11 11 10 11 10 10 10 10 10 10
3 4 2 3 3 5 5 3 6 2 6 5 6 8 5 4 4 6 15 18 17 13 11 10 12 14 16 17 16 16 15 15 15 14 13 12 11 10 11 10 8 10 9 8 8 8 7 7 6
3 5 4 1 8 9 6 3 7 6 1 6 10 8 5 3 6 8 17 17 14 14 12 9 14 16 17 16 15 15 15 14 13 12 12 11 10 9 9 9 9 9 8 8 5 5 5 5 6
3 0 3 4 9 6 3 4 8 6 3 5 5 4 4 3 13 12 17 13 16 13 11 9 13 15 15 15 14 13 13 12 12 11 11 11 10 10 10 8 7 6 5 4 3 3 3 4 5
3 1 2 4 9 4 3 5 3 8 4 5 8 7 2 3 12 8 12 15 14 13 10 9 11 13 13 13 13 12 11 11 10 10 10 10 9 8 7 6 5 3 2 2 2 4 5 7 8
2 2 4 6 12 6 3 2 6 7 8 5 13 7 4 3 8 9 13 15 13 12 9 8 7 10 12 12 11 11 11 10 9 9 9 8 7 6 5 3 2 1 1 2 4 5 6 8 9
4 1 4 4 10 5 4 5 6 6 5 7 7 8 8 7 11 9 14 14 13 11 10 7 7 7 7 6 10 10 10 10 9 8 7 7 6 5 5 4 3 2 3 4 5 6 7 8 9
4 4 11 11 5 6 6 3 8 5 6 5 4 7 13 14 14 8 15 13 12 10 10 8 8 7 7 7 7 7 8 8 8 6 6 5 3 4 5 5 6 4 5 5 7 8 8 8 9
7 6 14 4 7 4 3 5 7 2 5 4 5 10 22 21 16 15 16 13 11 10 10 10 8 8 8 7 6 5 5 4 4 4 4 3 4 5 5 5 7 5 7 6 9 9 8 6 4
6 15 13 13 5 5 5 8 4 8 3 7 11 19 16 20 11 13 11 12 9 7 7 9 8 9 8 6 4 3 3 3 2 2 2 2 2 0 1 1 2 3 5 3 3 3 2 4 3
10 15 15 15 7 1 2 3 8 5 4 12 18 23 15 19 14 16 14 12 12 9 8 7 7 7 8 5 5 5 3 3 2 3 3 1 1 1 1 1 2 2 1 2 3 2 4 5 5
18 18 22 9 10 9 3 6 6 5 2 18 18 19 15 17 12 13 12 8 10 9 8 7 5 4 6 8 5 5 4 4 4 4 4 2 1 0 1 1 2 3 3 3 3 3 4 5 6
5 25 14 15 12 8 8 5 2 4 11 18 19 17 12 16 15 14 14 15 13 10 10 8 6 6 5 5 6 5 4 4 4 4 4 3 1 1 2 3 4 3 3 4 4 4 4 4 4
9 19 27 14 18 14 6 5 8 7 14 16 13 13 10 10 10 17 17 17 16 13 12 11 7 7 7 7 5 4 4 4 4 3 4 6 5 4 5 4 5 5 5 6 5 5 4 5 5
3 13 23 24 19 13 11 10 13 9 15 15 12 8 8 10 11 10 16 16 15 14 15 12 7 8 8 6 5 4 4 3 6 6 6 8 8 7 6 5 5 4 5 5 4 4 4 4 4
5 12 21 21 19 9 8 5 9 10 14 14 13 9 9 13 13 9 14 14 13 15 14 11 9 8 8 6 5 5 10 7 6 7 6 8 7 7 7 6 5 6 6 6 4 4 3 4 5
3 6 14 22 20 24 7 7 3 9 15 16 15 10 9 13 12 12 10 11 10 12 12 10 8 8 7 6 8 8 7 7 7 7 7 8 7 8 7 7 7 6 6 6 5 5 5 5 6
8 14 13 17 13 19 20 12 5 7 6 15 15 13 12 9 8 9 8 11 9 10 12 11 10 8 6 6 6 5 5 6 7 7 8 9 8 9 7 6 6 6 7 5 7 4 5 6 8
12 17 16 14 11 17 15 17 16 9 8 16 17 14 14 12 8 8 8 13 11 11 12 11 10 10 7 7 5 5 6 7 7 6 8 8 9 8 8 7 6 6 5 8 8 6 3 4 7
5 6 5 8 9 7 10 13 18 12 4 8 12 15 13 17 16 12 15 14 11 8 10 10 9 9 6 11 10 10 10 7 5 5 5 6 8 9 8 8 7 7 5 5 5 5 6 3 4
4 2 10 2 9 5 11 5 26 22 8 12 12 14 14 15 12 12 12 9 11 8 8 10 8 10 10 12 11 13 8 8 4 5 5 6 8 8 8 8 7 6 4 6 5 6 5 4 5
3 6 3 5 9 4 7 2 7 24 17 12 14 15 17 14 14 14 14 13 9 9 9 8 10 7 8 10 11 11 11 9 7 7 9 8 7 7 7 6 6 7 5 5 6 7 8 7 4
11 5 3 3 3 3 5 4 4 18 22 11 15 14 16 19 17 12 15 14 11 9 11 9 12 9 9 11 12 15 15 12 9 7 7 5 5 5 7 7 6 6 5 7 7 7 9 7 6
13 3 2 2 1 1 4 5 5 6 4 8 16 17 14 16 18 19 14 14 12 11 11 9 10 10 9 12 11 11 12 12 11 8 6 5 4 4 5 5 5 4 7 7 6 7 7 6 4
6 6 1 4 2 2 3 5 3 5 3 2 6 14 17 16 15 14 13 12 12 12 11 9 10 11 10 12 12 11 11 7 7 7 5 5 4 4 4 5 6 7 7 7 6 5 5 5 5
4 2 3 5 1 2 1 3 5 5 5 14 12 17 16 16 14 17 14 11 11 10 9 8 11 10 10 11 11 11 9 10 9 8 7 5 4 5 4 5 6 7 7 6 6 5 5 5 5
3 6 3 3 2 3 2 2 2 5 6 13 12 14 14 14 15 13 12 12 9 10 8 8 10 10 9 10 9 8 9 8 7 7 6 6 5 5 5 6 6 6 6 6 6 4 5 5 3
3 1 5 4 3 2 3 2 1 3 11 12 12 12 14 14 13 12 10 10 10 8 7 8 8 10 8 8 8 8 7 6 6 6 5 5 5 5 6 6 5 5 5 5 5 5 5 5 5
4 3 1 3 3 1 2 3 3 5 9 14 13 13 12 13 13 13 12 11 11 9 8 8 8 9 7 6 7 6 6 7 6 6 6 6 6 5 5 5 5 5 4 4 5 4 4 5 5
Wind_Direction
341 293 284 8 41 88 245 253 164 320 210 122 86 90 112 53 54 155 109 125 126 128 130 127 128 127 139 139 133 134 134 121 118 112 105 104 102 97 98 96 92 87 83 79 73 67 58 49 44
338 303 48 84 111 241 269 206 191 217 179 104 83 129 57 79 54 107 100 131 129 131 129 126 126 114 127 128 128 134 130 126 122 115 107 103 102 103 98 94 92 83 77 74 68 59 50 43 37
321 236 72 144 197 211 232 209 118 350 144 134 101 48 96 111 99 126 130 131 129 133 131 133 123 111 111 110 108 108 108 108 105 104 106 107 105 100 92 91 63 85 70 72 65 55 46 37 29
8 351 332 119 250 254 252 233 169 158 205 80 112 81 61 182 135 143 139 135 134 126 130 133 125 119 113 109 106 106 108 109 108 108 111 110 106 104 97 87 73 71 68 64 61 45 33 19 6
8 40 267 238 250 259 279 263 165 155 197 121 107 117 78 26 129 125 139 120 118 123 130 131 125 122 117 113 111 111 110 111 113 116 115 110 106 101 98 98 92 86 83 70 51 32 9 342 329
328 62 260 239 259 290 229 263 267 156 193 154 84 105 108 146 123 144 115 117 121 127 127 129 117 119 115 112 110 109 114 117 119 118 116 113 114 114 110 106 104 101 76 38 8 348 336 326 321
197 131 247 265 273 307 254 300 280 176 164 146 142 91 140 154 152 140 120 123 121 121 120 124 120 120 115 112 113 116 118 117 113 110 114 123 129 128 126 132 137 115 344 327 330 324 315 309 306
309 337 250 245 263 271 222 265 355 248 194 106 139 148 174 195 156 136 126 124 121 129 131 131 126 123 118 125 125 122 122 120 122 132 142 148 155 166 172 188 212 258 292 301 295 289 287 292 293
38 244 235 233 244 248 192 150 247 246 102 67 8 151 154 153 147 116 130 124 129 135 142 143 145 144 139 133 134 125 131 140 148 159 177 177 204 209 209 214 216 241 265 273 275 273 274 285 290
202 231 226 231 242 248 343 193 221 145 122 56 49 80 134 148 155 136 144 139 141 149 154 159 161 161 157 154 152 158 159 169 175 178 210 218 220 194 186 209 221 246 255 263 264 260 278 286 280
188 244 237 232 259 117 271 324 257 167 203 178 159 145 145 151 142 136 138 141 139 136 147 168 169 163 164 147 162 172 165 142 125 99 210 260 134 176 227 266 238 247 252 258 308 312 288 293 320
205 230 251 221 283 183 296 249 313 216 206 156 154 157 149 159 149 145 149 152 148 147 148 156 156 160 150 148 167 144 138 145 165 210 249 294 46 259 309 219 220 225 248 350 29 20 5 356 339
218 214 225 218 240 225 282 281 250 234 204 132 139 157 157 161 145 143 147 153 157 159 157 170 186 174 155 161 154 146 163 170 186 200 221 155 79 1 26 330 23 39 41 34 16 16 7 2 348
258 220 226 211 231 241 192 257 317 184 127 126 143 162 163 164 156 151 156 165 171 165 168 189 200 198 146 121 137 153 161 182 177 173 173 166 128 15 56 50 42 32 39 35 39 35 32 17 18
260 232 221 225 205 252 161 291 236 161 138 132 146 155 165 162 160 161 166 168 171 173 172 194 191 171 141 137 149 134 156 142 147 133 91 64 39 27 68 60 40 28 45 40 32 22 26 29 8
249 270 200 219 193 252 169 200 225 183 146 142 150 156 163 172 165 151 163 165 170 168 172 181 175 149 147 152 148 136 135 91 69 69 67 57 43 57 67 63 46 35 42 36 35 24 15 19 12
217 284 207 199 203 223 178 210 203 176 157 146 151 160 173 166 168 155 162 163 164 162 164 165 152 148 156 152 154 93 82 77 72 69 63 50 44 57 68 56 44 46 47 33 11 14 35 21 354
151 245 214 199 202 208 221 239 149 179 160 153 151 153 178 172 163 149 145 151 152 152 152 148 149 152 153 154 103 91 83 75 68 64 56 48 44 50 62 51 47 49 46 30 16 20 24 22 352
262 234 264 192 180 203 197 221 187 214 162 151 157 156 173 195 144 159 157 157 151 151 152 154 150 165 156 132 121 113 100 86 67 62 58 54 50 53 61 63 54 53 60 44 28 8 29 23 355
306 263 242 194 199 187 178 209 238 193 187 170 162 159 170 170 179 194 172 162 159 156 159 160 164 163 166 144 133 116 117 90 85 72 59 54 57 51 65 62 60 52 54 44 35 26 20 13 22
264 288 241 229 161 172 161 215 228 243 212 167 166 161 176 170 184 196 166 159 148 147 160 164 161 160 139 113 108 99 99 93 81 62 66 47 57 58 59 57 57 56 54 55 48 34 44 48 12
225 188 315 268 180 151 181 188 196 225 204 178 161 168 182 173 177 175 135 102 100 94 93 96 90 110 119 128 125 132 126 123 93 96 86 68 57 60 58 60 59 57 52 48 43 37 40 48 32
227 132 212 347 179 148 168 122 177 208 212 190 175 168 174 170 150 135 113 106 93 86 92 82 81 64 102 114 117 117 111 111 116 107 96 76 57 55 59 59 64 65 63 62 63 48 46 47 63
161 182 139 81 80 199 204 137 216 189 197 175 176 169 159 142 119 110 112 105 96 86 75 76 77 57 85 107 115 121 123 125 124 118 105 94 73 54 51 56 47 51 67 65 62 58 58 59 54
180 99 135 132 149 126 173 134 253 316 101 178 175 173 152 134 127 137 129 123 115 103 85 78 87 72 72 86 91 103 112 116 118 118 119 113 99 77 64 61 64 59 69 66 67 75 66 60 62
189 151 81 3 112 84 77 174 230 322 53 35 166 131 125 121 125 120 117 118 107 105 101 100 101 96 91 96 95 93 95 98 93 91 96 95 95 91 90 89 85 68 78 74 67 65 78 75 69
164 101 154 118 15 109 47 236 254 124 93 80 100 120 125 126 121 124 115 102 104 103 105 122 117 104 101 101 104 101 104 109 109 105 105 102 112 110 98 89 81 69 72 80 75 72 74 72 67
195 141 107 25 123 110 186 246 171 167 134 120 119 120 119 113 113 111 106 110 109 111 122 130 117 115 110 107 107 110 114 104 98 92 107 130 118 104 100 88 80 80 73 79 81 76 73 74 59
32 89 52 97 91 87 121 293 44 265 166 151 130 124 125 120 119 117 119 119 116 116 124 118 113 117 110 104 104 105 106 112 119 133 130 109 103 105 94 96 94 85 78 74 84 90 84 85 75
296 345 67 109 217 127 138 300 327 274 156 136 126 130 127 127 131 131 128 126 132 138 138 135 132 124 119 121 115 118 138 155 120 116 116 106 106 97 109 106 101 98 97 96 95 91 99 101 89